Regional Weather Roundup
Issued by NWS

Home | Current Version | Previous Version | Text Only | Print | Product List | Glossary On
Versions: 1 2 3 4 5 6 7 8 9 10 11 12 13 14 15 16 17 18 19 20 21 22 23 24 25 26 27 28
000
ASUS45 KBOI 240410
RWRID

IDAHO REGIONAL WEATHER ROUNDUP
NATIONAL WEATHER SERVICE BOISE ID
900 PM MST TUE JAN 23 2018

NOTE: "FAIR" INDICATES FEW OR NO CLOUDS BELOW 12000 FEET
WITH NO SIGNIFICANT WEATHER AND/OR OBSTRUCTIONS TO VISIBILITY

IDZ012-014-240500-
SOUTHWEST IDAHO


CITY           SKY/WX    TMP DP  RH WIND       PRES   REMARKS
BOISE          CLOUDY    38  29  70 S7        30.14F WCI  33
CALDWELL       CLOUDY    39  29  67 SE18      30.14F WCI  30
MOUNTAIN HOME  CLOUDY    37  33  87 SE17      30.16F WCI  27
$$

IDZ016-017-240500-
SOUTHCENTRAL IDAHO


CITY           SKY/WX    TMP DP  RH WIND       PRES   REMARKS
BURLEY         PTCLDY    35  24  64 S12       30.21S WCI  27
JEROME         MOCLDY    29  24  82 NE16      30.20F WCI  17
TWIN FALLS     PTCLDY    34  27  75 E6        30.19S WCI  29
$$

IDZ019>023-240500-
SOUTHEAST IDAHO


CITY           SKY/WX    TMP DP  RH WIND       PRES   REMARKS
IDAHO FALLS    PTCLDY    23  22  96 N5        30.27S WCI  17
POCATELLO      CLEAR     35  23  61 S14       30.25S WCI  26
REXBURG        CLOUDY    23  21  92 CALM      30.26S
$$

IDZ006-010-011-018-031-032-240500-
CENTRAL IDAHO MOUNTAINS


CITY           SKY/WX    TMP DP  RH WIND       PRES   REMARKS
MCCALL         CLOUDY    31  25  78 SE3       30.09F
HAILEY         CLOUDY    27  19  74 W6        30.24S WCI  20
STANLEY          N/A     25  16  68 SE9       30.11F WCI  15
SALMON         CLOUDY    24  20  84 CALM      30.18F
CHALLIS        PTCLDY    23  18  81 CALM      30.18S
$$

IDZ002-004-006-007-026-240500-
NORTHERN IDAHO


CITY           SKY/WX    TMP DP  RH WIND       PRES   REMARKS
LEWISTON       CLOUDY    44  34  67 VRB5      30.01F
LOWELL           N/A     36  34  92 N5        30.10F WCI  32
COEUR D`ALENE  LGT SNOW  32  31  96 N3        29.97F FOG
MULLAN PASS    LGT SNOW  25  24  96 VRB6      29.89F VSB 1   WCI  18
$$




USA.gov is the U.S. government's official web portal to all federal, state and local government web resources and services.